H1 CPF 2 NER 2020 11 22 9 327 01 glonass122 H2 1004103 9122 37139 2020 11 22 0 0 0 2020 11 25 23 45 0 900 1 1 0 0 0 1 H9 10 0 59175 0.00000 0 -14927981.461 -13218923.868 15809219.464 10 0 59175 900.00000 0 -12949490.549 -12535100.168 17971612.547 10 0 59175 1800.00000 0 -10689034.464 -11938407.491 19782641.382 10 0 59175 2700.00000 0 -8195601.800 -11471997.998 21207219.038 10 0 59175 3600.00000 0 -5526757.535 -11170039.281 22217903.836 10 0 59175 4500.00000 0 -2746456.617 -11056210.544 22795412.952 10 0 59175 5400.00000 0 77399.639 -11142666.979 22928968.569 10 0 59175 6300.00000 0 2875560.717 -11429513.925 22616472.278 10 0 59175 7200.00000 0 5580068.366 -11904809.985 21864507.195 10 0 59175 8100.00000 0 8126832.628 -12545095.566 20688170.835 10 0 59175 9000.00000 0 10458036.672 -13316421.296 19110744.884 10 0 59175 9900.00000 0 12524272.737 -14175830.040 17163210.980 10 0 59175 10800.00000 0 14286323.833 -15073227.906 14883624.110 10 0 59175 11700.00000 0 15716521.011 -15953564.123 12316357.326 10 0 59175 12600.00000 0 16799624.134 -16759227.877 9511233.582 10 0 59175 13500.00000 0 17533193.616 -17432561.822 6522561.698 10 0 59175 14400.00000 0 17927441.479 -17918387.991 3408094.762 10 0 59175 15300.00000 0 18004571.168 -18166442.157 227930.305 10 0 59175 16200.00000 0 17797635.916 -18133616.751 -2956628.018 10 0 59175 17100.00000 0 17348964.568 -17785920.633 -6084227.172 10 0 59175 18000.00000 0 16708220.794 -17100075.614 -9094619.695 10 0 59175 18900.00000 0 15930176.039 -16064684.274 -11929797.028 10 0 59175 19800.00000 0 15072287.778 -14680920.760 -14535081.830 10 0 59175 20700.00000 0 14192182.325 -12962715.322 -16860160.437 10 0 59175 21600.00000 0 13345145.240 -10936423.315 -18860037.692 10 0 59175 22500.00000 0 12581722.230 -8639989.925 -20495897.377 10 0 59175 23400.00000 0 11945529.297 -6121642.060 -21735852.677 10 0 59175 24300.00000 0 11471362.885 -3438157.789 -22555572.671 10 0 59175 25200.00000 0 11183689.180 -652780.963 -22938772.412 10 0 59175 26100.00000 0 11095576.873 2167136.465 -22877555.988 10 0 59175 27000.00000 0 11208120.144 4952670.232 -22372604.122 10 0 59175 27900.00000 0 11510378.889 7635935.305 -21433200.127 10 0 59175 28800.00000 0 11979842.075 10152666.408 -20077090.737 10 0 59175 29700.00000 0 12583398.312 12444660.939 -18330181.235 10 0 59175 30600.00000 0 13278776.127 14461982.050 -16226067.476 10 0 59175 31500.00000 0 14016395.977 16164828.375 -13805410.913 10 0 59175 32400.00000 0 14741557.612 17524990.042 -11115166.318 10 0 59175 33300.00000 0 15396870.954 18526827.269 -8207675.494 10 0 59175 34200.00000 0 15924826.909 19167727.769 -5139644.026 10 0 59175 35100.00000 0 16270397.309 19458021.546 -1971021.304 10 0 59175 36000.00000 0 16383550.804 19420355.241 1236192.928 10 0 59175 36900.00000 0 16221574.344 19088552.065 4419189.862 10 0 59175 37800.00000 0 15751097.903 18506006.350 7515613.492 10 0 59175 38700.00000 0 14949732.802 17723682.606 10464815.025 10 0 59175 39600.00000 0 13807251.108 16797806.648 13209071.731 10 0 59175 40500.00000 0 12326253.926 15787350.106 15694743.153 10 0 59175 41400.00000 0 10522299.205 14751418.422 17873339.441 10 0 59175 42300.00000 0 8423483.729 13746656.339 19702478.883 10 0 59175 43200.00000 0 6069497.946 12824783.302 21146715.040 10 0 59175 44100.00000 0 3510195.205 12030364.630 22178217.345 10 0 59175 45000.00000 0 803737.767 11398913.051 22777292.839 10 0 59175 45900.00000 0 -1985600.455 10955399.892 22932740.704 10 0 59175 46800.00000 0 -4789880.635 10713236.700 22642035.166 10 0 59175 47700.00000 0 -7540091.766 10673767.258 21911336.032 10 0 59175 48600.00000 0 -10168780.970 10826287.859 20755329.738 10 0 59175 49500.00000 0 -12612612.627 11148591.186 19196906.910 10 0 59175 50400.00000 0 -14814751.491 11608007.335 17266685.429 10 0 59175 51300.00000 0 -16726973.469 12162895.082 15002390.465 10 0 59175 52200.00000 0 -18311419.769 12764518.388 12448105.148 10 0 59175 53100.00000 0 -19541925.343 13359227.937 9653407.490 10 0 59175 54000.00000 0 -20404870.468 13890855.634 6672410.593 10 0 59175 54900.00000 0 -20899523.896 14303222.135 3562724.424 10 0 59175 55800.00000 0 -21037866.485 14542653.296 384358.318 10 0 59175 56700.00000 0 -20843905.398 14560401.874 -2801415.988 10 0 59175 57600.00000 0 -20352509.156 14314875.170 -5933220.669 10 0 59175 58500.00000 0 -19607812.681 13773577.077 -8950727.363 10 0 59175 59400.00000 0 -18661258.544 12914684.871 -11795792.027 10 0 59175 60300.00000 0 -17569354.929 11728195.645 -14413549.689 10 0 59175 61200.00000 0 -16391242.073 10216594.474 -16753450.245 10 0 59175 62100.00000 0 -15186166.459 8395015.372 -18770217.448 10 0 59175 63000.00000 0 -14010965.915 6290886.154 -20424714.294 10 0 59175 63900.00000 0 -12917668.564 3943068.989 -21684699.173 10 0 59175 64800.00000 0 -11951304.400 1400528.524 -22525458.703 10 0 59175 65700.00000 0 -11148020.174 -1279421.403 -22930304.720 10 0 59175 66600.00000 0 -10533576.677 -4033223.915 -22890924.739 10 0 59175 67500.00000 0 -10122292.427 -6793454.833 -22407577.314 10 0 59175 68400.00000 0 -9916480.122 -9491372.781 -21489126.008 10 0 59175 69300.00000 0 -9906402.230 -12059540.148 -20152908.351 10 0 59175 70200.00000 0 -10070750.747 -14434407.256 -18424439.065 10 0 59175 71100.00000 0 -10377634.126 -16558752.293 -16336949.976 10 0 59175 72000.00000 0 -10786032.605 -18383874.056 -13930772.587 10 0 59175 72900.00000 0 -11247662.588 -19871443.927 -11252572.767 10 0 59175 73800.00000 0 -11709172.345 -20994936.846 -8354450.711 10 0 59175 74700.00000 0 -12114575.921 -21740578.276 -5292923.025 10 0 59175 75600.00000 0 -12407820.724 -22107764.684 -2127807.010 10 0 59175 76500.00000 0 -12535377.336 -22108937.696 1078969.758 10 0 59175 77400.00000 0 -12448738.289 -21768916.055 4264608.967 10 0 59175 78300.00000 0 -12106715.823 -21123713.618 7366703.084 10 0 59175 79200.00000 0 -11477437.196 -20218894.511 10324490.789 10 0 59175 80100.00000 0 -10539949.343 -19107537.295 13080078.208 10 0 59175 81000.00000 0 -9285362.097 -17847897.358 15579598.813 10 0 59175 81900.00000 0 -7717479.717 -16500869.859 17774286.631 10 0 59175 82800.00000 0 -5852893.441 -15127364.028 19621439.712 10 0 59175 83700.00000 0 -3720531.532 -13785702.716 21085254.091 10 0 59175 84600.00000 0 -1360687.076 -12529159.135 22137511.936 10 0 59175 85500.00000 0 1176433.571 -11403735.683 22758111.333 10 0 59176 0.00000 0 3832578.594 -10446278.144 22935429.224 10 0 59176 900.00000 0 6543654.687 -9683003.292 22666512.779 10 0 59176 1800.00000 0 9242172.926 -9128498.454 21957098.424 10 0 59176 2700.00000 0 11859834.002 -8785232.950 20821461.055 10 0 59176 3600.00000 0 14330145.093 -8643596.310 19282099.456 10 0 59176 4500.00000 0 16590960.161 -8682458.787 17369266.654 10 0 59176 5400.00000 0 18586840.183 -8870226.224 15120356.607 10 0 59176 6300.00000 0 20271138.005 -9166341.981 12579160.805 10 0 59176 7200.00000 0 21607724.474 -9523170.538 9795010.319 10 0 59176 8100.00000 0 22572287.813 -9888182.318 6821820.269 10 0 59176 9000.00000 0 23153155.899 -10206347.723 3717054.910 10 0 59176 9900.00000 0 23351610.537 -10422640.439 540632.563 10 0 59176 10800.00000 0 23181683.571 -10484546.363 -2646209.868 10 0 59176 11700.00000 0 22669445.224 -10344474.665 -5782072.780 10 0 59176 12600.00000 0 21851815.333 -9961971.872 -8806549.882 10 0 59176 13500.00000 0 20774947.030 -9305647.963 -11661364.487 10 0 59176 14400.00000 0 19492249.254 -8354734.980 -14291466.659 10 0 59176 15300.00000 0 18062128.836 -7100213.494 -16646072.286 10 0 59176 16200.00000 0 16545544.027 -5545459.275 -18679626.212 10 0 59176 17100.00000 0 15003468.901 -3706381.565 -20352672.566 10 0 59176 18000.00000 0 13494371.923 -1611044.594 -21632616.580 10 0 59176 18900.00000 0 12071811.755 701215.493 -22494363.741 10 0 59176 19800.00000 0 10782249.110 3181145.744 -22920823.684 10 0 59176 20700.00000 0 9663165.489 5771351.652 -22903268.018 10 0 59176 21600.00000 0 8741567.685 8408423.200 -22441533.436 10 0 59176 22500.00000 0 8032941.923 11025327.336 -21544063.692 10 0 59176 23400.00000 0 7540703.546 13553970.418 -20227786.672 10 0 59176 24300.00000 0 7256167.975 15927826.100 -18517825.709 10 0 59176 25200.00000 0 7159047.068 18084519.947 -16447047.405 10 0 59176 26100.00000 0 7218452.778 19968262.368 -14055451.712 10 0 59176 27000.00000 0 7394368.008 21532026.592 -11389413.612 10 0 59176 27900.00000 0 7639523.972 22739377.948 -8500789.334 10 0 59176 28800.00000 0 7901604.922 23565874.648 -5445903.790 10 0 59176 29700.00000 0 8125685.954 23999978.108 -2284439.179 10 0 59176 30600.00000 0 8256798.422 24043431.801 921752.322 10 0 59176 31500.00000 0 8242511.048 23711090.673 4109886.255 10 0 59176 32400.00000 0 8035413.386 23030207.496 7217506.921 10 0 59176 33300.00000 0 7595392.199 22039206.610 10183743.746 10 0 59176 34200.00000 0 6891600.314 20785998.400 12950534.797 10 0 59176 35100.00000 0 5904031.162 19325908.257 15463790.314 10 0 59176 36000.00000 0 4624629.881 17719310.673 17674470.719 10 0 59176 36900.00000 0 3057892.693 16029071.822 19539556.002 10 0 59176 37800.00000 0 1220929.004 14317911.746 21022886.469 10 0 59176 38700.00000 0 -857015.574 12645799.831 22095858.408 10 0 59176 39600.00000 0 -3135553.561 11067494.895 22737961.909 10 0 59176 40500.00000 0 -5564623.450 9630333.635 22937152.137 10 0 59176 41400.00000 0 -8086367.358 8372359.396 22690049.212 10 0 59176 42300.00000 0 -10637337.842 7320867.623 22001965.626 10 0 59176 43200.00000 0 -13150940.345 6491425.755 20886763.695 10 0 59176 44100.00000 0 -15560008.758 5887404.638 19366548.800 10 0 59176 45000.00000 0 -17799406.970 5500036.801 17471207.071 10 0 59176 45900.00000 0 -19808549.447 5308994.793 15237798.819 10 0 59176 46800.00000 0 -21533738.099 5283461.479 12709821.169 10 0 59176 47700.00000 0 -22930220.938 5383644.207 9936355.297 10 0 59176 48600.00000 0 -23963890.342 5562667.179 6971115.290 10 0 59176 49500.00000 0 -24612553.590 5768761.353 3871416.664 10 0 59176 50400.00000 0 -24866726.064 5947659.874 697083.771 10 0 59176 51300.00000 0 -24729917.089 6045099.221 -2490684.192 10 0 59176 52200.00000 0 -24218398.609 6009322.574 -5630468.546 10 0 59176 53100.00000 0 -23360467.633 5793482.202 -8661787.606 10 0 59176 54000.00000 0 -22195233.414 5357841.929 -11526234.429 10 0 59176 54900.00000 0 -20770979.228 4671688.945 -14168576.302 10 0 59176 55800.00000 0 -19143165.439 3714875.833 -16537797.074 10 0 59176 56700.00000 0 -17372154.791 2478928.374 -18588064.386 10 0 59176 57600.00000 0 -15520751.957 967671.814 -20279604.871 10 0 59176 58500.00000 0 -13651657.083 -802652.567 -21579471.610 10 0 59176 59400.00000 0 -11824936.756 -2803788.534 -22462189.569 10 0 59176 60300.00000 0 -10095615.653 -4996370.851 -22910266.382 10 0 59176 61200.00000 0 -8511487.956 -7331302.730 -22914557.555 10 0 59176 62100.00000 0 -7111239.349 -9751552.045 -22474477.346 10 0 59176 63000.00000 0 -5922958.526 -12194295.919 -21598048.762 10 0 59176 63900.00000 0 -4963101.894 -14593327.971 -20301788.799 10 0 59176 64800.00000 0 -4235956.936 -16881630.696 -18610427.883 10 0 59176 65700.00000 0 -3733629.287 -18994007.178 -16556465.620 10 0 59176 66600.00000 0 -3436556.760 -20869662.317 -14179568.470 10 0 59176 67500.00000 0 -3314531.001 -22454624.544 -11525818.444 10 0 59176 68400.00000 0 -3328185.342 -23703904.322 -8646825.629 10 0 59176 69300.00000 0 -3430886.764 -24583295.846 -5598721.022 10 0 59176 70200.00000 0 -3570951.422 -25070742.915 -2441049.468 10 0 59176 71100.00000 0 -3694088.281 -25157208.232 764414.507 10 0 59176 72000.00000 0 -3745964.523 -24847006.872 3954902.572 10 0 59176 72900.00000 0 -3674780.347 -24157588.093 7067913.153 10 0 59176 73800.00000 0 -3433739.863 -23118774.175 10042468.717 10 0 59176 74700.00000 0 -2983309.219 -21771489.070 12820341.555 10 0 59176 75600.00000 0 -2293162.502 -20166032.398 15347220.881 10 0 59176 76500.00000 0 -1343730.017 -18359974.286 17573795.607 10 0 59176 77400.00000 0 -127281.530 -16415763.078 19456729.550 10 0 59176 78300.00000 0 1351502.147 -14398149.968 20959508.906 10 0 59176 79200.00000 0 3075493.016 -12371541.783 22053145.378 10 0 59176 80100.00000 0 5015615.480 -10397395.313 22716721.983 10 0 59176 81000.00000 0 7131858.711 -8531763.550 22937772.665 10 0 59176 81900.00000 0 9374757.099 -6823096.371 22712490.662 10 0 59176 82800.00000 0 11687274.454 -5310386.299 22045764.356 10 0 59176 83700.00000 0 14007011.299 -4021734.108 20951042.981 10 0 59176 84600.00000 0 16268641.857 -2973390.547 19450037.708 10 0 59176 85500.00000 0 18406478.547 -2169309.996 17572266.724 10 0 59177 0.00000 0 20357057.693 -1601230.086 15354455.445 10 0 59177 900.00000 0 22061639.988 -1249269.631 12839804.942 10 0 59177 1800.00000 0 23468524.312 -1083015.816 10077144.741 10 0 59177 2700.00000 0 24535080.339 -1063052.449 7119985.820 10 0 59177 3600.00000 0 25229419.600 -1142862.664 4025492.616 10 0 59177 4500.00000 0 25531637.635 -1271025.784 853392.963 10 0 59177 5400.00000 0 25434578.780 -1393616.014 -2335154.346 10 0 59177 6300.00000 0 24944093.933 -1456703.318 -5478714.343 10 0 59177 7200.00000 0 24078782.097 -1408853.143 -8516732.758 10 0 59177 8100.00000 0 22869226.959 -1203521.920 -11390675.091 10 0 59177 9000.00000 0 21356759.883 -801249.661 -14045128.408 10 0 59177 9900.00000 0 19591799.466 -171559.151 -16428846.861 10 0 59177 10800.00000 0 17631834.596 705517.140 -18495722.985 10 0 59177 11700.00000 0 15539132.170 1838346.640 -20205667.796 10 0 59177 12600.00000 0 13378261.848 3223089.643 -21525383.852 10 0 59177 13500.00000 0 11213537.802 4843603.484 -22429016.994 10 0 59177 14400.00000 0 9106481.209 6671865.320 -22898673.984 10 0 59177 15300.00000 0 7113407.123 8668899.977 -22924795.073 10 0 59177 16200.00000 0 5283235.032 10786178.674 -22506372.605 10 0 59177 17100.00000 0 3655614.094 12967434.878 -21651009.014 10 0 59177 18000.00000 0 2259442.103 15150825.544 -20374810.183 10 0 59177 18900.00000 0 1111841.616 17271350.892 -18702112.990 10 0 59177 19800.00000 0 217638.305 19263433.832 -16665048.993 10 0 59177 20700.00000 0 -430634.088 21063551.958 -14302949.668 10 0 59177 21600.00000 0 -852200.014 22612811.451 -11661602.151 10 0 59177 22500.00000 0 -1077000.155 23859353.189 -8792368.093 10 0 59177 23400.00000 0 -1144184.051 24760487.216 -5751181.919 10 0 59177 24300.00000 0 -1100200.950 25284462.461 -2597448.161 10 0 59177 25200.00000 0 -996570.785 25411793.630 607139.492 10 0 59177 26100.00000 0 -887431.940 25136086.101 3799832.155 10 0 59177 27000.00000 0 -826972.996 24464321.517 6918085.744 10 0 59177 27900.00000 0 -866861.261 23416590.585 9900819.068 10 0 59177 28800.00000 0 -1053781.239 22025284.116 12689641.807 10 0 59177 29700.00000 0 -1427191.386 20333777.448 15230025.098 10 0 59177 30600.00000 0 -2017397.563 18394665.775 17472389.021 10 0 59177 31500.00000 0 -2844027.179 16267627.545 19373083.573 10 0 59177 32400.00000 0 -3914969.931 14017008.995 20895242.847 10 0 59177 33300.00000 0 -5225830.066 11709234.335 22009495.566 10 0 59177 34200.00000 0 -6759912.387 9410152.802 22694518.860 10 0 59177 35100.00000 0 -8488740.880 7182435.332 22937426.164 10 0 59177 36000.00000 0 -10373085.969 5083130.187 22733984.040 10 0 59177 36900.00000 0 -12364454.790 3161478.877 22088656.441 10 0 59177 37800.00000 0 -14406979.815 1457081.485 21014478.633 10 0 59177 38700.00000 0 -16439625.047 -1515.364 19532766.169 10 0 59177 39600.00000 0 -18398616.445 -1197752.900 17672667.342 10 0 59177 40500.00000 0 -20219994.925 -2127482.609 15470570.156 10 0 59177 41400.00000 0 -21842186.142 -2798863.647 12969377.063 10 0 59177 42300.00000 0 -23208481.421 -3231743.831 10217662.765 10 0 59177 43200.00000 0 -24269328.647 -3456553.815 7268731.857 10 0 59177 44100.00000 0 -24984340.382 -3512763.532 4179594.380 10 0 59177 45000.00000 0 -25323938.212 -3446967.219 1009878.349 10 0 59177 45900.00000 0 -25270567.636 -3310678.018 -2179301.098 10 0 59177 46800.00000 0 -24819435.331 -3157924.206 -5326495.804 10 0 59177 47700.00000 0 -23978739.567 -3042746.731 -8371081.843 10 0 59177 48600.00000 0 -22769385.049 -3016701.336 -11254399.918 10 0 59177 49500.00000 0 -21224193.878 -3126468.128 -13920859.392 10 0 59177 50400.00000 0 -19386644.285 -3411667.137 -16318986.979 10 0 59177 51300.00000 0 -17309187.646 -3902970.148 -18402402.041 10 0 59177 52200.00000 0 -15051210.950 -4620587.516 -20130701.498 10 0 59177 53100.00000 0 -12676726.333 -5573193.801 -21470238.448 10 0 59177 54000.00000 0 -10251880.311 -6757338.842 -22394780.152 10 0 59177 54900.00000 0 -7842383.068 -8157371.613 -22886032.521 10 0 59177 55800.00000 0 -5510962.087 -9745883.585 -22934020.047 10 0 59177 56700.00000 0 -3314944.079 -11484657.307 -22537312.175 10 0 59177 57600.00000 0 -1304064.887 -13326085.076 -21703089.358 10 0 59177 58500.00000 0 481401.266 -15215002.646 -20447044.600 10 0 59177 59400.00000 0 2012114.146 -17090865.084 -18793119.182 10 0 59177 60300.00000 0 3270678.211 -18890176.503 -16773074.340 10 0 59177 61200.00000 0 4252146.978 -20549073.405 -14425904.124 10 0 59177 62100.00000 0 4963997.526 -22005953.515 -11797098.255 10 0 59177 63000.00000 0 5425574.051 -23204038.528 -8937767.323 10 0 59177 63900.00000 0 5667022.329 -24093760.648 -5903646.557 10 0 59177 64800.00000 0 5727759.507 -24634869.224 -2753997.574 10 0 59177 65700.00000 0 5654544.379 -24798165.035 449569.341 10 0 59177 66600.00000 0 5499231.523 -24566785.410 3644327.226 10 0 59177 67500.00000 0 5316307.182 -23936982.802 6767691.867 10 0 59177 68400.00000 0 5160314.938 -22918361.647 9758480.673 10 0 59177 69300.00000 0 5083284.345 -21533562.397 12558142.812 10 0 59177 70200.00000 0 5132275.571 -19817406.160 15111933.250 10 0 59177 71100.00000 0 5347147.805 -17815537.262 17370004.899 10 0 59177 72000.00000 0 5758648.772 -15582623.165 19288395.329 10 0 59177 72900.00000 0 6386908.057 -13180190.264 20829887.589 10 0 59177 73800.00000 0 7240398.598 -10674189.371 21964728.139 10 0 59177 74700.00000 0 8315409.672 -8132395.786 22671188.561 10 0 59177 75600.00000 0 9596052.161 -5621754.737 22935961.766 10 0 59177 76500.00000 0 11054793.701 -3205784.194 22754387.278 10 0 59177 77400.00000 0 12653498.589 -942143.353 22130503.961 10 0 59177 78300.00000 0 14344926.254 1119533.255 21076932.190 10 0 59177 79200.00000 0 16074623.171 2939448.431 19614590.749 10 0 59177 80100.00000 0 17783127.273 4489029.775 17772256.712 10 0 59177 81000.00000 0 19408391.703 5751838.460 15585979.223 10 0 59177 81900.00000 0 20888326.663 6723966.140 13098360.347 10 0 59177 82800.00000 0 22163353.987 7413907.917 10357718.194 10 0 59177 83700.00000 0 23178869.381 7841920.848 7417149.031 10 0 59177 84600.00000 0 23887511.860 8038898.197 4333506.367 10 0 59177 85500.00000 0 24251148.063 8044808.886 1166316.108 10 0 59178 0.00000 0 24242491.462 7906768.874 -2023352.544 10 0 59178 900.00000 0 23846290.880 7676825.609 -5174040.823 10 0 59178 1800.00000 0 23060041.595 7409547.333 -8225057.515 10 0 59178 2700.00000 0 21894188.712 7159517.570 -11117620.851 10 0 59178 3600.00000 0 20371816.156 6978837.225 -13795964.692 10 0 59178 4500.00000 0 18527832.166 6914737.617 -16208390.333 10 0 59178 5400.00000 0 16407683.847 7007402.577 -18308245.784 10 0 59178 6300.00000 0 14065651.380 7288089.832 -20054815.500 10 0 59178 7200.00000 0 11562789.573 7777630.122 -21414104.569 10 0 59178 8100.00000 0 8964598.659 8485367.660 -22359502.942 10 0 59178 9000.00000 0 6338517.493 9408588.177 -22872316.766 10 0 59178 9900.00000 0 3751340.121 10532461.304 -22942155.632 10 0 59178 10800.00000 0 1266660.475 11830503.414 -22567166.683 10 0 59178 11700.00000 0 -1057550.266 13265545.710 -21754108.649 10 0 59178 12600.00000 0 -3171133.377 14791171.291 -20518261.545 10 0 59178 13500.00000 0 -5033607.775 16353564.978 -18883170.517 10 0 59178 14400.00000 0 -6615631.532 17893701.589 -16880225.508 10 0 59178 15300.00000 0 -7899996.523 19349783.004 -14548081.760 10 0 59178 16200.00000 0 -8882112.216 20659822.503 -11931929.771 10 0 59178 17100.00000 0 -9569955.930 21764267.207 -9082626.940 10 0 59178 18000.00000 0 -9983489.701 22608546.334 -6055706.842 10 0 59178 18900.00000 0 -10153567.159 23145434.971 -2910285.473 10 0 59178 19800.00000 0 -10120376.505 23337130.044 292113.162 10 0 59178 20700.00000 0 -9931486.364 23156946.933 3488787.044 10 0 59178 21600.00000 0 -9639579.493 22590561.459 6617114.895 10 0 59178 22500.00000 0 -9299973.445 21636741.767 9615815.788 10 0 59178 23400.00000 0 -8968037.064 20307537.229 12426181.378 10 0 59178 24300.00000 0 -8696616.330 18627915.590 14993253.335 10 0 59178 25200.00000 0 -8533582.479 16634864.085 17266920.101 10 0 59178 26100.00000 0 -8519609.444 14375993.914 19202909.274 10 0 59178 27000.00000 0 -8686276.956 11907709.103 20763655.036 10 0 59178 27900.00000 0 -9054580.675 9293019.326 21919023.424 10 0 59178 28800.00000 0 -9633912.149 6599091.193 22646881.926 10 0 59178 29700.00000 0 -10421550.499 3894642.752 22933503.953 10 0 59178 30600.00000 0 -11402685.138 1247291.546 22773802.538 10 0 59178 31500.00000 0 -12550965.892 -1279032.572 22171391.478 10 0 59178 32400.00000 0 -13829554.490 -3626502.860 21138475.751 10 0 59178 33300.00000 0 -15192630.517 -5745540.705 19695576.320 10 0 59178 34200.00000 0 -16587286.273 -7596603.911 17871097.450 10 0 59178 35100.00000 0 -17955729.553 -9151547.812 15700747.354 10 0 59178 36000.00000 0 -19237701.343 -10394506.922 13226825.232 10 0 59178 36900.00000 0 -20373007.300 -11322264.941 10497389.762 10 0 59178 37800.00000 0 -21304058.287 -11944102.124 7565325.783 10 0 59178 38700.00000 0 -21978315.305 -12281130.142 4487327.036 10 0 59178 39600.00000 0 -22350538.781 -12365145.157 1322813.986 10 0 59178 40500.00000 0 -22384750.763 -12237049.113 -1867193.601 10 0 59178 41400.00000 0 -22055830.318 -11944906.134 -5021229.384 10 0 59178 42300.00000 0 -21350677.482 -11541715.220 -8078538.191 10 0 59178 43200.00000 0 -20268898.402 -11082991.483 -10980218.883 10 0 59178 44100.00000 0 -18822983.475 -10624255.564 -13670332.738 10 0 59178 45000.00000 0 -17037970.488 -10218534.386 -16096958.299 10 0 59178 45900.00000 0 -14950605.165 -9913975.975 -18213174.592 10 0 59178 46800.00000 0 -12608031.496 -9751676.591 -19977955.556 10 0 59178 47700.00000 0 -10066063.058 -9763810.219 -21356959.737 10 0 59178 48600.00000 0 -7387103.388 -9972138.668 -22323200.687 10 0 59178 49500.00000 0 -4637797.826 -10386965.621 -22857585.092 10 0 59178 50400.00000 0 -1886510.695 -11006580.449 -22949307.369 10 0 59178 51300.00000 0 799270.622 -11817218.000 -22596091.509 10 0 59178 52200.00000 0 3355499.273 -12793539.730 -21804273.188 10 0 59178 53100.00000 0 5723994.829 -13899619.962 -20588717.661 10 0 59178 54000.00000 0 7854630.801 -15090399.884 -18972571.829 10 0 59178 54900.00000 0 9707191.781 -16313551.748 -16986851.933 10 0 59178 55800.00000 0 11252820.868 -17511677.527 -14669871.757 10 0 59178 56700.00000 0 12474994.602 -18624751.049 -12066519.741 10 0 59178 57600.00000 0 13369982.018 -19592700.865 -9227397.079 10 0 59178 58500.00000 0 13946766.199 -20358023.734 -6207832.577 10 0 59178 59400.00000 0 14226429.940 -20868315.977 -3066793.438 10 0 59178 60300.00000 0 14241030.656 -21078612.406 134285.786 10 0 59178 61200.00000 0 14032012.330 -20953430.103 3332731.095 10 0 59178 62100.00000 0 13648223.213 -20468426.665 6465887.069 10 0 59178 63000.00000 0 13143625.733 -19611599.292 9472377.129 10 0 59178 63900.00000 0 12574799.029 -18383971.310 12293337.788 10 0 59178 64800.00000 0 11998343.776 -16799735.494 14873599.435 10 0 59178 65700.00000 0 11468303.098 -14885847.671 17162787.653 10 0 59178 66600.00000 0 11033712.259 -12681088.529 19116321.263 10 0 59178 67500.00000 0 10736383.458 -10234634.754 20696286.340 10 0 59178 68400.00000 0 10609021.018 -7604201.876 21872168.817 10 0 59178 69300.00000 0 10673746.884 -4853839.328 22621432.006 10 0 59178 70200.00000 0 10941097.868 -2051472.441 22929929.332 10 0 59178 71100.00000 0 11409534.943 733704.105 22792146.502 10 0 59178 72000.00000 0 12065482.592 3433871.501 22211271.114 10 0 59178 72900.00000 0 12883893.366 5985160.636 21199091.357 10 0 59178 73800.00000 0 13829310.729 8330048.634 19775728.772 10 0 59178 74700.00000 0 14857382.593 10419480.685 17969213.063 10 0 59178 75600.00000 0 15916759.657 12214632.302 15814909.650 10 0 59178 76500.00000 0 16951297.379 13688242.685 13354812.864 10 0 59178 77400.00000 0 17902468.669 14825468.100 10636719.885 10 0 59178 78300.00000 0 18711886.521 15624224.128 7713301.969 10 0 59178 79200.00000 0 19323831.932 16095006.475 4641090.819 10 0 59178 80100.00000 0 19687683.188 16260201.289 1479399.173 10 0 59178 81000.00000 0 19760146.834 16152916.131 -1710804.878 10 0 59178 81900.00000 0 19507199.317 15815382.009 -4868049.843 10 0 59178 82800.00000 0 18905660.240 15296993.588 -7931518.759 10 0 59178 83700.00000 0 17944332.842 14652068.944 -10842193.199 10 0 59178 84600.00000 0 16624664.799 13937421.145 -13543963.777 10 0 59178 85500.00000 0 14960901.592 13209841.364 -15984688.014 99